Regional Weather Roundup
Issued by NWS

Home | Current Version | Previous Version | Text Only | Print | Product List | Glossary Off
Versions: 1 2 3 4 5 6 7 8 9 10 11 12 13 14 15 16 17 18 19 20 21 22 23 24 25 26 27 28 29 30 31 32 33 34 35 36 37 38 39 40 41 42 43 44 45 46 47 48 49 50

000
ASUS43 KDTX 171110
RWRMI
MICHIGAN HOURLY REGIONAL WEATHER ROUNDUP
NATIONAL WEATHER SERVICE DETROIT/PONTIAC MI
700 AM EDT THU APR 17 2014

NOTE: "FAIR" INDICATES FEW OR NO CLOUDS BELOW 12,000 FEET WITH NO
SIGNIFICANT WEATHER AND/OR OBSTRUCTION TO VISIBILITY.

MIZ047>049-052>055-059>063-066>070-074>076-081>083-171200-
SOUTHEAST LOWER MICHIGAN

CITY           SKY/WX    TMP DP  RH WIND       PRES   REMARKS
ADRIAN         PTCLDY    31  29  92 NE5       30.32R
ALMA           CLOUDY    32  23  69 E7        30.31F
ANN ARBOR      MOCLDY    31  26  82 E3        30.33R
BAD AXE        MOCLDY    32  23  68 E6        30.38F
DETROIT CITY   PTCLDY    36  26  67 E8        30.36S
DETROIT        CLOUDY    33  26  75 NE3       30.35S
FLINT          MOCLDY    32  24  72 E8        30.34R
GROSSE ILE     PTCLDY    34  28  80 E5        30.33S
HILLSDALE      PTCLDY    34  24  64 SE10      30.28S
HOWELL         CLOUDY    32  23  69 SE10      30.31S

CITY           SKY/WX    TMP DP  RH WIND       PRES   REMARKS
JACKSON        MOCLDY    32  28  85 SE8       30.30R
LAMBERTVILLE   PTCLDY    36  23  60 SE5       30.33R
LANSING        CLOUDY    33  25  72 SE9       30.30S
LAPEER         NOT AVBL
MASON          CLOUDY    32  27  81 E7        30.30S
MONROE         PTCLDY    37  30  75 CALM      30.32S
MT. CLEMENS    MOCLDY    34  26  73 E9        30.35S
PONTIAC        CLOUDY    31  24  75 E6        30.33R
PORT HOPE        N/A     34  25  69 SE13      30.40R
PORT HURON     PTCLDY    32  23  69 SE3       30.38R
TRI CITIES     CLOUDY    33  22  63 E10       30.34F
YPSILANTI      MOCLDY    32  25  75 NE5       30.34S
$$
MIZ043>046-050>051-056>058-064>065-071>073-077>080-171200-
SOUTHWEST LOWER MICHIGAN

CITY           SKY/WX    TMP DP  RH WIND       PRES   REMARKS
BATTLE CREEK   MOCLDY    35  24  64 SE8       30.26S
BENTON HARBOR  MOCLDY    36  26  67 SE12      30.20F
BIG RAPIDS     CLOUDY    33  23  67 E8        30.26F
COLDWATER      MOCLDY    34  23  63 SE10      30.26F
HOLLAND        MOCLDY    38  25  59 SE13      30.22F
GRAND RAPIDS   MOCLDY    35  27  72 SE14      30.25F
KALAMAZOO      MOCLDY    37  23  56 SE8       30.25S
MARSHALL       MOCLDY    33  24  67 SE10      30.26F
MUSKEGON       MOCLDY    37  24  59 SE18G24   30.21F
$$
MIZ016>042-171200-
NORTHERN LOWER MICHIGAN

CITY           SKY/WX    TMP DP  RH WIND       PRES   REMARKS
ALPENA         CLOUDY    33  27  78 SE12      30.40S
BEAVER ISLAND  CLOUDY    32  27  82 E14       30.28S
BELLAIRE       CLOUDY    37  20  50 SE12G22   30.27F
CADILLAC       CLOUDY    31  21  65 E15G22    30.23F
CHARLEVOIX     CLOUDY    36  22  58 E12       30.30F
FRANKFORT      CLOUDY    37  22  54 SE12G20   30.20F
GAYLORD        CLOUDY    31  20  63 SE12      30.30R
GRAYLING       CLOUDY    33  21  62 E9        30.31S
HARBOR SPRINGS CLOUDY    34  23  63 E12       30.30F
HOUGHTON LAKE  CLOUDY    31  19  61 SE12      30.30F
MANISTEE       CLOUDY    37  19  48 SE13G20   30.21F
OSCODA         CLOUDY    35  26  70 SE10G16   30.40S
PELLSTON       CLOUDY    34  21  59 E12       30.33F
TRAVERSE CITY  CLOUDY    36  20  52 SE14G24   30.23F
$$
MIZ007>008-015-171200-
EASTERN UPPER MICHIGAN

CITY           SKY/WX    TMP DP  RH WIND       PRES   REMARKS
KINROSS        CLOUDY    28  27  93 E21       30.37F VSB 1
MACKINAC ISLAN CLOUDY    31  31  99 E15G29    30.35S
NEWBERRY       CLOUDY    30  28  93 E15       30.31F
S. S. MARIE    SNOW      28  26  92 E9        30.40S VSB 1/2
$$
MIZ004>006-011>014-085-171200-
CENTRAL UPPER MICHIGAN

CITY           SKY/WX    TMP DP  RH WIND       PRES   REMARKS
MANISTIQUE     CLOUDY    31  28  88 E9G20     30.27S
ESCANABA       CLOUDY    34  28  80 E17       30.20F
MENOMINEE      CLOUDY    34  30  86 S15G21    30.16S
SAWYER-GWINN   LGT SNOW  30  28  93 SE14      30.19S
$$
MIZ001>003-009>011-084-171200-
WESTERN UPPER MICHIGAN

CITY           SKY/WX    TMP DP  RH WIND       PRES   REMARKS
IRON MOUNTAIN  SNOW      31  28  89 E10G17    30.12F VSB 1/2
HOUGHTON       SNOW      29  26  89 E16G25    30.17S VSB 1/2
COPPER HARBOR    N/A     30  28  92 S9G18     30.23F
IRONWOOD       CLOUDY    30  27  86 N3        30.03S
$$

ABBREVIATIONS USED IN REMARKS
   TC - TEMPERATURE IN CELSIUS
  WCI - WIND CHILL INDEX
   HX - HEAT INDEX
  VSB - VISIBILITY




USA.gov is the U.S. government's official web portal to all federal, state and local government web resources and services.